Time,TemperatureF,DewpointF,PressureIn,WindDirection,WindDirectionDegrees,WindSpeedMPH,WindSpeedGustMPH,Humidity,HourlyPrecipIn,Conditions,Clouds,dailyrainin,SoftwareType,DateUTC
2013-05-21 00:00:00,76.6,71.7,29.80,ESE,119,1.0,1.0,85,0.00,,,0.00,Wunderground v.1.15,2013-05-21 05:00:00,
2013-05-21 00:05:00,76.4,71.6,29.80,ESE,103,0.0,1.0,85,0.00,,,0.00,Wunderground v.1.15,2013-05-21 05:05:00,
2013-05-21 00:15:00,76.2,71.7,29.79,North,5,1.0,1.0,86,0.00,,,0.00,Wunderground v.1.15,2013-05-21 05:15:00,
2013-05-21 00:20:00,76.1,71.6,29.79,ESE,106,1.0,1.0,86,0.00,,,0.00,Wunderground v.1.15,2013-05-21 05:20:00,
2013-05-21 00:30:00,75.8,71.3,29.81,SE,128,0.0,0.0,86,0.00,,,0.00,Wunderground v.1.15,2013-05-21 05:30:00,
2013-05-21 00:40:00,75.5,71.4,29.81,SE,128,0.0,0.0,87,0.00,,,0.00,Wunderground v.1.15,2013-05-21 05:40:00,
2013-05-21 00:45:00,75.3,71.5,29.81,SE,136,0.0,0.0,88,0.00,,,0.00,Wunderground v.1.15,2013-05-21 05:45:00,
2013-05-21 00:55:00,75.2,71.4,29.81,ESE,105,0.0,1.0,88,0.00,,,0.00,Wunderground v.1.15,2013-05-21 05:55:00,
2013-05-21 01:05:00,75.2,71.7,29.81,SSE,150,0.0,0.0,89,0.00,,,0.00,Wunderground v.1.15,2013-05-21 06:05:00,
2013-05-21 01:15:00,75.0,71.5,29.80,SE,128,0.0,0.0,89,0.00,,,0.00,Wunderground v.1.15,2013-05-21 06:15:00,
2013-05-21 01:24:00,74.8,71.7,29.80,SE,143,0.0,0.0,90,0.00,,,0.00,Wunderground v.1.15,2013-05-21 06:24:00,
2013-05-21 01:30:00,74.7,71.6,29.79,SE,145,0.0,0.0,90,0.00,,,0.00,Wunderground v.1.15,2013-05-21 06:30:00,
2013-05-21 01:40:00,74.6,71.8,29.79,SE,146,0.0,0.0,91,0.00,,,0.00,Wunderground v.1.15,2013-05-21 06:40:00,
2013-05-21 01:50:00,74.6,71.8,29.79,SE,144,0.0,0.0,91,0.00,,,0.00,Wunderground v.1.15,2013-05-21 06:50:00,
2013-05-21 02:00:00,74.6,71.8,29.77,SE,134,0.0,0.0,91,0.00,,,0.00,Wunderground v.1.15,2013-05-21 07:00:00,
2013-05-21 02:10:00,74.6,71.8,29.77,SSE,148,0.0,0.0,91,0.00,,,0.00,Wunderground v.1.15,2013-05-21 07:10:00,
2013-05-21 02:15:00,74.5,71.7,29.77,SSE,148,0.0,0.0,91,0.00,,,0.00,Wunderground v.1.15,2013-05-21 07:15:00,
2013-05-21 02:25:00,74.3,71.8,29.78,SSE,148,0.0,0.0,92,0.00,,,0.00,Wunderground v.1.15,2013-05-21 07:25:00,
2013-05-21 02:35:00,74.3,71.8,29.77,SE,145,0.0,0.0,92,0.00,,,0.00,Wunderground v.1.15,2013-05-21 07:35:00,
2013-05-21 02:45:00,74.4,71.9,29.77,SE,146,0.0,0.0,92,0.00,,,0.00,Wunderground v.1.15,2013-05-21 07:45:00,
2013-05-21 02:55:00,74.4,71.9,29.77,SE,146,0.0,0.0,92,0.00,,,0.00,Wunderground v.1.15,2013-05-21 07:55:00,
2013-05-21 03:00:00,74.5,72.0,29.77,SE,143,0.0,0.0,92,0.00,,,0.00,Wunderground v.1.15,2013-05-21 08:00:00,
2013-05-21 03:10:00,74.5,72.0,29.77,SE,144,0.0,0.0,92,0.00,,,0.00,Wunderground v.1.15,2013-05-21 08:10:00,
2013-05-21 03:15:00,74.6,72.1,29.76,SE,126,0.0,0.0,92,0.00,,,0.00,Wunderground v.1.15,2013-05-21 08:15:00,
2013-05-21 03:25:00,74.6,72.1,29.76,ESE,123,0.0,0.0,92,0.00,,,0.00,Wunderground v.1.15,2013-05-21 08:25:00,
2013-05-21 03:35:00,74.7,72.2,29.76,SE,143,0.0,1.0,92,0.00,,,0.00,Wunderground v.1.15,2013-05-21 08:35:00,
2013-05-21 03:45:00,74.8,72.3,29.76,SE,145,1.0,1.0,92,0.00,,,0.00,Wunderground v.1.15,2013-05-21 08:45:00,
2013-05-21 03:54:00,74.7,72.2,29.75,ESE,122,0.0,1.0,92,0.00,,,0.00,Wunderground v.1.15,2013-05-21 08:54:00,
2013-05-21 04:00:00,74.6,72.1,29.75,SE,134,0.0,0.0,92,0.00,,,0.00,Wunderground v.1.15,2013-05-21 09:00:00,
2013-05-21 04:10:00,74.4,71.9,29.75,ESE,117,0.0,0.0,92,0.00,,,0.00,Wunderground v.1.15,2013-05-21 09:10:00,
2013-05-21 04:20:00,74.1,71.9,29.75,ESE,123,0.0,0.0,93,0.00,,,0.00,Wunderground v.1.15,2013-05-21 09:20:00,
2013-05-21 04:30:00,73.8,71.6,29.75,SE,145,1.0,1.0,93,0.00,,,0.00,Wunderground v.1.15,2013-05-21 09:30:00,
2013-05-21 04:40:00,73.6,71.4,29.75,SE,131,0.0,1.0,93,0.00,,,0.00,Wunderground v.1.15,2013-05-21 09:40:00,
2013-05-21 04:50:00,73.4,71.6,29.74,SE,136,0.0,0.0,94,0.00,,,0.00,Wunderground v.1.15,2013-05-21 09:50:00,
2013-05-21 05:00:00,73.3,71.5,29.74,SE,136,1.0,1.0,94,0.00,,,0.00,Wunderground v.1.15,2013-05-21 10:00:00,
2013-05-21 05:10:00,73.4,71.9,29.74,SE,131,0.0,2.0,95,0.00,,,0.00,Wunderground v.1.15,2013-05-21 10:10:00,
2013-05-21 05:19:00,73.5,72.0,29.75,SE,136,1.0,2.0,95,0.00,,,0.00,Wunderground v.1.15,2013-05-21 10:19:00,
2013-05-21 05:25:00,73.7,72.2,29.74,SE,131,1.0,2.0,95,0.00,,,0.00,Wunderground v.1.15,2013-05-21 10:25:00,
2013-05-21 05:35:00,73.7,71.9,29.75,ESE,105,1.0,1.0,94,0.00,,,0.00,Wunderground v.1.15,2013-05-21 10:35:00,
2013-05-21 05:44:00,73.8,72.0,29.75,ESE,117,0.0,1.0,94,0.00,,,0.00,Wunderground v.1.15,2013-05-21 10:44:00,
2013-05-21 05:50:00,73.8,72.0,29.75,East,101,0.0,1.0,94,0.00,,,0.00,Wunderground v.1.15,2013-05-21 10:50:00,
2013-05-21 06:00:00,73.9,72.1,29.75,SE,141,0.0,1.0,94,0.00,,,0.00,Wunderground v.1.15,2013-05-21 11:00:00,
2013-05-21 06:09:00,73.9,72.1,29.75,SSE,148,0.0,1.0,94,0.00,,,0.00,Wunderground v.1.15,2013-05-21 11:09:00,
2013-05-21 06:15:00,74.0,72.2,29.75,SE,141,0.0,1.0,94,0.00,,,0.00,Wunderground v.1.15,2013-05-21 11:15:00,
2013-05-21 06:25:00,74.0,72.2,29.75,SSE,149,0.0,1.0,94,0.00,,,0.00,Wunderground v.1.15,2013-05-21 11:25:00,
2013-05-21 06:35:00,74.2,72.4,29.76,SSE,155,1.0,1.0,94,0.00,,,0.00,Wunderground v.1.15,2013-05-21 11:35:00,
2013-05-21 06:45:00,74.4,72.2,29.76,SE,132,1.0,1.0,93,0.00,,,0.00,Wunderground v.1.15,2013-05-21 11:45:00,
2013-05-21 06:54:00,74.7,72.5,29.77,ESE,106,1.0,2.0,93,0.00,,,0.00,Wunderground v.1.15,2013-05-21 11:54:00,
2013-05-21 07:00:00,74.9,72.7,29.77,ESE,117,1.0,4.0,93,0.00,,,0.00,Wunderground v.1.15,2013-05-21 12:00:00,
2013-05-21 07:09:00,75.1,72.6,29.77,SE,144,1.0,3.0,92,0.00,,,0.00,Wunderground v.1.15,2013-05-21 12:09:00,
2013-05-21 07:15:00,75.2,72.7,29.77,SE,126,1.0,3.0,92,0.00,,,0.00,Wunderground v.1.15,2013-05-21 12:15:00,
2013-05-21 07:25:00,75.4,72.9,29.78,East,93,1.0,2.0,92,0.00,,,0.00,Wunderground v.1.15,2013-05-21 12:25:00,
2013-05-21 07:30:00,75.4,72.9,29.78,SE,146,1.0,2.0,92,0.00,,,0.00,Wunderground v.1.15,2013-05-21 12:30:00,
2013-05-21 07:39:00,75.5,73.0,29.78,WNW,285,1.0,2.0,92,0.00,,,0.00,Wunderground v.1.15,2013-05-21 12:39:00,
2013-05-21 07:45:00,75.6,72.8,29.78,East,92,1.0,2.0,91,0.00,,,0.00,Wunderground v.1.15,2013-05-21 12:45:00,
2013-05-21 07:50:00,75.7,72.9,29.78,ESE,119,1.0,1.0,91,0.00,,,0.00,Wunderground v.1.15,2013-05-21 12:50:00,
2013-05-21 08:00:00,75.9,73.1,29.79,SW,222,1.0,1.0,91,0.00,,,0.00,Wunderground v.1.15,2013-05-21 13:00:00,
2013-05-21 08:10:00,76.0,72.9,29.79,SE,129,1.0,2.0,90,0.00,,,0.00,Wunderground v.1.15,2013-05-21 13:10:00,
2013-05-21 08:20:00,76.3,73.1,29.79,SSE,148,1.0,1.0,90,0.00,,,0.00,Wunderground v.1.15,2013-05-21 13:20:00,
2013-05-21 08:29:00,76.8,73.3,29.79,ESE,113,1.0,2.0,89,0.00,,,0.00,Wunderground v.1.15,2013-05-21 13:29:00,
2013-05-21 08:35:00,77.1,73.3,29.79,South,177,1.0,2.0,88,0.00,,,0.00,Wunderground v.1.15,2013-05-21 13:35:00,
2013-05-21 08:45:00,77.7,73.5,29.79,West,272,1.0,2.0,87,0.00,,,0.00,Wunderground v.1.15,2013-05-21 13:45:00,
2013-05-21 08:55:00,78.3,73.8,29.79,SE,128,1.0,1.0,86,0.00,,,0.00,Wunderground v.1.15,2013-05-21 13:55:00,
2013-05-21 09:05:00,78.4,73.5,29.80,ESE,114,1.0,2.0,85,0.00,,,0.00,Wunderground v.1.15,2013-05-21 14:05:00,
2013-05-21 09:15:00,78.9,73.7,29.80,SE,128,1.0,2.0,84,0.00,,,0.00,Wunderground v.1.15,2013-05-21 14:15:00,
2013-05-21 09:25:00,79.6,73.6,29.80,ENE,60,2.0,3.0,82,0.00,,,0.00,Wunderground v.1.15,2013-05-21 14:25:00,
2013-05-21 09:34:00,80.2,73.5,29.80,ESE,103,1.0,2.0,80,0.00,,,0.00,Wunderground v.1.15,2013-05-21 14:34:00,
2013-05-21 09:40:00,80.2,73.5,29.80,ESE,108,2.0,2.0,80,0.00,,,0.00,Wunderground v.1.15,2013-05-21 14:40:00,
2013-05-21 09:50:00,80.9,73.8,29.80,ENE,62,2.0,2.0,79,0.00,,,0.00,Wunderground v.1.15,2013-05-21 14:50:00,
2013-05-21 10:00:00,80.9,73.8,29.79,ESE,104,2.0,2.0,79,0.00,,,0.00,Wunderground v.1.15,2013-05-21 15:00:00,
2013-05-21 10:10:00,81.0,73.5,29.79,South,175,2.0,2.0,78,0.00,,,0.00,Wunderground v.1.15,2013-05-21 15:10:00,
2013-05-21 10:19:00,81.5,73.6,29.79,SE,135,2.0,3.0,77,0.00,,,0.00,Wunderground v.1.15,2013-05-21 15:19:00,
2013-05-21 10:25:00,82.1,74.2,29.79,ESE,102,2.0,3.0,77,0.00,,,0.00,Wunderground v.1.15,2013-05-21 15:25:00,
2013-05-21 10:35:00,82.6,73.9,29.79,SSW,192,2.0,2.0,75,0.00,,,0.00,Wunderground v.1.15,2013-05-21 15:35:00,
2013-05-21 10:44:00,82.2,73.5,29.79,ESE,114,2.0,2.0,75,0.00,,,0.00,Wunderground v.1.15,2013-05-21 15:44:00,
2013-05-21 10:50:00,81.9,73.6,29.79,SSE,162,2.0,2.0,76,0.00,,,0.00,Wunderground v.1.15,2013-05-21 15:50:00,
2013-05-21 11:00:00,83.0,74.3,29.78,ESE,103,2.0,3.0,75,0.00,,,0.00,Wunderground v.1.15,2013-05-21 16:00:00,
2013-05-21 11:05:00,83.6,74.4,29.78,ENE,75,2.0,4.0,74,0.00,,,0.00,Wunderground v.1.15,2013-05-21 16:05:00,
2013-05-21 11:15:00,83.6,74.0,29.78,ESE,104,2.0,3.0,73,0.00,,,0.00,Wunderground v.1.15,2013-05-21 16:15:00,
2013-05-21 11:25:00,84.1,74.1,29.78,NE,56,2.0,2.0,72,0.00,,,0.00,Wunderground v.1.15,2013-05-21 16:25:00,
2013-05-21 11:35:00,84.6,73.7,29.78,East,91,2.0,2.0,70,0.00,,,0.00,Wunderground v.1.15,2013-05-21 16:35:00,
2013-05-21 11:45:00,84.7,73.8,29.78,East,96,2.0,2.0,70,0.00,,,0.00,Wunderground v.1.15,2013-05-21 16:45:00,
2013-05-21 11:55:00,85.1,74.2,29.78,NE,46,3.0,3.0,70,0.00,,,0.00,Wunderground v.1.15,2013-05-21 16:55:00,
2013-05-21 12:05:00,85.6,74.3,29.78,SW,225,2.0,4.0,69,0.00,,,0.00,Wunderground v.1.15,2013-05-21 17:05:00,
2013-05-21 12:15:00,85.5,73.7,29.78,SE,132,2.0,3.0,68,0.00,,,0.00,Wunderground v.1.15,2013-05-21 17:15:00,
2013-05-21 12:24:00,85.8,74.0,29.78,East,98,2.0,2.0,68,0.00,,,0.00,Wunderground v.1.15,2013-05-21 17:24:00,
2013-05-21 12:30:00,86.1,74.7,29.78,North,4,2.0,2.0,69,0.00,,,0.00,Wunderground v.1.15,2013-05-21 17:30:00,
2013-05-21 12:40:00,86.1,73.9,29.78,ESE,120,2.0,2.0,67,0.00,,,0.00,Wunderground v.1.15,2013-05-21 17:40:00,
2013-05-21 12:50:00,85.7,73.5,29.78,SE,127,2.0,2.0,67,0.00,,,0.00,Wunderground v.1.15,2013-05-21 17:50:00,
2013-05-21 13:00:00,85.9,73.7,29.77,SE,141,2.0,2.0,67,0.00,,,0.00,Wunderground v.1.15,2013-05-21 18:00:00,
2013-05-21 13:09:00,86.2,74.4,29.78,ESE,116,1.0,1.0,68,0.00,,,0.00,Wunderground v.1.15,2013-05-21 18:09:00,
2013-05-21 13:15:00,86.7,74.0,29.78,South,174,2.0,2.0,66,0.00,,,0.00,Wunderground v.1.15,2013-05-21 18:15:00,
2013-05-21 13:25:00,86.5,74.2,29.77,ESE,110,2.0,3.0,67,0.00,,,0.00,Wunderground v.1.15,2013-05-21 18:25:00,
2013-05-21 13:35:00,86.5,74.2,29.77,ESE,120,2.0,4.0,67,0.00,,,0.00,Wunderground v.1.15,2013-05-21 18:35:00,
2013-05-21 13:45:00,87.2,74.5,29.76,SW,233,1.0,1.0,66,0.00,,,0.00,Wunderground v.1.15,2013-05-21 18:45:00,
2013-05-21 13:55:00,87.5,74.3,29.76,ESE,120,2.0,2.0,65,0.00,,,0.00,Wunderground v.1.15,2013-05-21 18:55:00,
2013-05-21 14:05:00,87.2,74.5,29.76,WSW,249,2.0,2.0,66,0.00,,,0.00,Wunderground v.1.15,2013-05-21 19:05:00,
2013-05-21 14:15:00,87.1,73.9,29.76,SW,217,2.0,2.0,65,0.00,,,0.00,Wunderground v.1.15,2013-05-21 19:15:00,
2013-05-21 14:20:00,86.9,73.7,29.76,ESE,123,2.0,2.0,65,0.00,,,0.00,Wunderground v.1.15,2013-05-21 19:20:00,
2013-05-21 14:30:00,87.7,74.0,29.75,East,100,2.0,2.0,64,0.00,,,0.00,Wunderground v.1.15,2013-05-21 19:30:00,
2013-05-21 14:40:00,87.7,74.0,29.75,WSW,255,1.0,1.0,64,0.00,,,0.00,Wunderground v.1.15,2013-05-21 19:40:00,
2013-05-21 14:50:00,88.0,73.8,29.75,ESE,122,1.0,1.0,63,0.00,,,0.00,Wunderground v.1.15,2013-05-21 19:50:00,
2013-05-21 14:59:00,87.9,74.2,29.75,West,262,1.0,3.0,64,0.00,,,0.00,Wunderground v.1.15,2013-05-21 19:59:00,
2013-05-21 15:05:00,87.8,74.6,29.75,West,267,1.0,3.0,65,0.00,,,0.00,Wunderground v.1.15,2013-05-21 20:05:00,
2013-05-21 15:15:00,87.9,74.2,29.75,West,260,1.0,1.0,64,0.00,,,0.00,Wunderground v.1.15,2013-05-21 20:15:00,
2013-05-21 15:25:00,88.1,74.4,29.74,SSE,148,2.0,2.0,64,0.00,,,0.00,Wunderground v.1.15,2013-05-21 20:25:00,
2013-05-21 15:35:00,88.3,74.6,29.74,SSW,195,1.0,2.0,64,0.00,,,0.00,Wunderground v.1.15,2013-05-21 20:35:00,
2013-05-21 15:44:00,89.9,75.1,29.73,West,260,1.0,1.0,62,0.00,,,0.00,Wunderground v.1.15,2013-05-21 20:44:00,
2013-05-21 15:50:00,90.3,75.0,29.73,SW,219,1.0,1.0,61,0.00,,,0.00,Wunderground v.1.15,2013-05-21 20:50:00,
2013-05-21 16:00:00,91.3,75.5,29.73,SW,236,1.0,1.0,60,0.00,,,0.00,Wunderground v.1.15,2013-05-21 21:00:00,
2013-05-21 16:10:00,91.5,75.7,29.72,NW,306,2.0,2.0,60,0.00,,,0.00,Wunderground v.1.15,2013-05-21 21:10:00,
2013-05-21 16:20:00,90.5,74.7,29.71,NNE,26,2.0,3.0,60,0.00,,,0.00,Wunderground v.1.15,2013-05-21 21:20:00,
2013-05-21 16:30:00,90.7,75.9,29.71,NE,47,1.0,4.0,62,0.00,,,0.00,Wunderground v.1.15,2013-05-21 21:30:00,
2013-05-21 16:40:00,90.6,74.8,29.71,SW,236,1.0,1.0,60,0.00,,,0.00,Wunderground v.1.15,2013-05-21 21:40:00,
2013-05-21 16:50:00,90.4,75.1,29.70,SSE,149,1.0,1.0,61,0.00,,,0.00,Wunderground v.1.15,2013-05-21 21:50:00,
2013-05-21 17:00:00,90.8,75.5,29.70,SW,229,1.0,1.0,61,0.00,,,0.00,Wunderground v.1.15,2013-05-21 22:00:00,
2013-05-21 17:10:00,90.4,75.1,29.69,SSE,153,1.0,1.0,61,0.00,,,0.00,Wunderground v.1.15,2013-05-21 22:10:00,
2013-05-21 17:20:00,90.2,74.9,29.69,NNE,26,1.0,1.0,61,0.00,,,0.00,Wunderground v.1.15,2013-05-21 22:20:00,
2013-05-21 17:30:00,90.4,75.1,29.69,WNW,285,1.0,1.0,61,0.00,,,0.00,Wunderground v.1.15,2013-05-21 22:30:00,
2013-05-21 17:39:00,90.4,75.1,29.69,SE,135,2.0,2.0,61,0.00,,,0.00,Wunderground v.1.15,2013-05-21 22:39:00,
2013-05-21 17:50:00,90.2,74.9,29.68,West,267,1.0,2.0,61,0.00,,,0.00,Wunderground v.1.15,2013-05-21 22:50:00,
2013-05-21 17:59:00,89.8,74.6,29.69,ESE,102,1.0,3.0,61,0.00,,,0.00,Wunderground v.1.15,2013-05-21 22:59:00,
2013-05-21 18:05:00,89.4,74.2,29.68,NW,308,1.0,3.0,61,0.00,,,0.00,Wunderground v.1.15,2013-05-21 23:05:00,
2013-05-21 18:15:00,89.0,74.3,29.68,WNW,289,1.0,1.0,62,0.00,,,0.00,Wunderground v.1.15,2013-05-21 23:15:00,
2013-05-21 18:24:00,88.9,74.2,29.69,SW,224,0.0,1.0,62,0.00,,,0.00,Wunderground v.1.15,2013-05-21 23:24:00,
2013-05-21 18:30:00,88.9,74.7,29.69,NE,53,0.0,1.0,63,0.00,,,0.00,Wunderground v.1.15,2013-05-21 23:30:00,
2013-05-21 18:40:00,88.5,74.3,29.68,NE,52,1.0,1.0,63,0.00,,,0.00,Wunderground v.1.15,2013-05-21 23:40:00,
2013-05-21 18:50:00,88.2,74.5,29.69,East,100,0.0,0.0,64,0.00,,,0.00,Wunderground v.1.15,2013-05-21 23:50:00,
2013-05-21 19:00:00,87.9,74.2,29.69,WSW,249,0.0,2.0,64,0.00,,,0.00,Wunderground v.1.15,2013-05-22 00:00:00,
2013-05-21 19:10:00,87.6,73.9,29.69,South,173,0.0,0.0,64,0.00,,,0.00,Wunderground v.1.15,2013-05-22 00:10:00,
2013-05-21 19:20:00,87.4,74.6,29.69,ESE,108,0.0,0.0,66,0.00,,,0.00,Wunderground v.1.15,2013-05-22 00:20:00,
2013-05-21 19:29:00,87.2,74.0,29.69,ESE,119,0.0,0.0,65,0.00,,,0.00,Wunderground v.1.15,2013-05-22 00:29:00,
2013-05-21 19:35:00,87.2,74.0,29.69,East,95,0.0,0.0,65,0.00,,,0.00,Wunderground v.1.15,2013-05-22 00:35:00,
2013-05-21 19:45:00,87.2,74.0,29.70,WNW,298,0.0,1.0,65,0.00,,,0.00,Wunderground v.1.15,2013-05-22 00:45:00,
2013-05-21 19:55:00,87.1,74.4,29.70,ESE,113,0.0,0.0,66,0.00,,,0.00,Wunderground v.1.15,2013-05-22 00:55:00,
2013-05-21 20:05:00,86.8,74.1,29.71,ESE,113,0.0,0.0,66,0.00,,,0.00,Wunderground v.1.15,2013-05-22 01:05:00,
2013-05-21 20:15:00,86.4,73.7,29.72,ESE,113,0.0,0.0,66,0.00,,,0.00,Wunderground v.1.15,2013-05-22 01:15:00,
2013-05-21 20:25:00,86.1,73.9,29.72,ESE,113,0.0,0.0,67,0.00,,,0.00,Wunderground v.1.15,2013-05-22 01:25:00,
2013-05-21 20:34:00,85.6,73.8,29.72,ESE,112,0.0,0.0,68,0.00,,,0.00,Wunderground v.1.15,2013-05-22 01:34:00,
2013-05-21 20:40:00,85.3,74.0,29.72,ESE,111,0.0,0.0,69,0.00,,,0.00,Wunderground v.1.15,2013-05-22 01:40:00,
2013-05-21 20:50:00,84.7,73.8,29.73,ESE,111,0.0,0.0,70,0.00,,,0.00,Wunderground v.1.15,2013-05-22 01:50:00,
2013-05-21 21:00:00,84.1,73.7,29.74,ESE,111,0.0,0.0,71,0.00,,,0.00,Wunderground v.1.15,2013-05-22 02:00:00,
2013-05-21 21:10:00,83.6,74.0,29.74,ESE,112,0.0,0.0,73,0.00,,,0.00,Wunderground v.1.15,2013-05-22 02:10:00,
2013-05-21 21:20:00,83.1,73.9,29.75,ESE,112,0.0,0.0,74,0.00,,,0.00,Wunderground v.1.15,2013-05-22 02:20:00,
2013-05-21 21:30:00,82.6,73.9,29.75,East,93,0.0,0.0,75,0.00,,,0.00,Wunderground v.1.15,2013-05-22 02:30:00,
2013-05-21 21:40:00,82.1,73.8,29.75,East,93,0.0,0.0,76,0.00,,,0.00,Wunderground v.1.15,2013-05-22 02:40:00,
2013-05-21 21:50:00,81.8,73.9,29.76,East,93,0.0,0.0,77,0.00,,,0.00,Wunderground v.1.15,2013-05-22 02:50:00,
2013-05-21 22:00:00,81.7,73.8,29.77,East,86,0.0,0.0,77,0.00,,,0.00,Wunderground v.1.15,2013-05-22 03:00:00,
2013-05-21 22:10:00,81.8,71.9,29.79,ESE,102,2.0,2.0,72,0.00,,,0.00,Wunderground v.1.15,2013-05-22 03:10:00,
2013-05-21 22:20:00,80.7,70.0,29.79,ENE,63,3.0,3.0,70,0.00,,,0.00,Wunderground v.1.15,2013-05-22 03:20:00,
2013-05-21 22:30:00,79.6,68.1,29.81,East,79,3.0,3.0,68,0.00,,,0.00,Wunderground v.1.15,2013-05-22 03:30:00,
2013-05-21 22:39:00,78.3,67.3,29.82,NE,43,3.0,3.0,69,0.00,,,0.00,Wunderground v.1.15,2013-05-22 03:39:00,
2013-05-21 22:45:00,77.8,67.2,29.83,East,80,3.0,3.0,70,0.00,,,0.00,Wunderground v.1.15,2013-05-22 03:45:00,
2013-05-21 22:55:00,77.1,66.6,29.83,SSE,152,4.0,4.0,70,0.00,,,0.00,Wunderground v.1.15,2013-05-22 03:55:00,
2013-05-21 23:04:00,76.6,66.1,29.84,ENE,66,2.0,4.0,70,0.00,,,0.00,Wunderground v.1.15,2013-05-22 04:04:00,
2013-05-21 23:10:00,76.2,64.4,29.84,NNE,16,3.0,3.0,67,0.00,,,0.00,Wunderground v.1.15,2013-05-22 04:10:00,
2013-05-21 23:15:00,75.9,64.6,29.84,North,352,3.0,3.0,68,0.00,,,0.00,Wunderground v.1.15,2013-05-22 04:15:00,
2013-05-21 23:25:00,75.5,64.6,29.85,ENE,78,3.0,3.0,69,0.00,,,0.00,Wunderground v.1.15,2013-05-22 04:25:00,
2013-05-21 23:35:00,75.4,65.7,29.85,ENE,75,1.0,2.0,72,0.00,,,0.00,Wunderground v.1.15,2013-05-22 04:35:00,
2013-05-21 23:39:00,75.3,66.0,29.85,NNE,32,1.0,2.0,73,0.00,,,0.00,Wunderground v.1.15,2013-05-22 04:39:00,
2013-05-21 23:50:00,74.9,65.7,29.85,NW,319,2.0,2.0,73,0.00,,,0.00,Wunderground v.1.15,2013-05-22 04:50:00,
2013-05-21 23:55:00,74.7,65.5,29.85,ENE,68,2.0,2.0,73,0.00,,,0.00,Wunderground v.1.15,2013-05-22 04:55:00,